Temp
63 63 63 62 63 63 63 63 64 64 64 64 64 64 64 64 65 76 87 90 91 83 87 89 89 89 89 83 84 82 78 74 74 74 77 83 79 84 87 82 82 82 81 83 79
63 62 62 62 62 63 63 63 63 63 64 64 64 64 64 64 75 83 89 83 83 83 92 90 88 88 85 82 84 79 77 77 83 84 82 83 83 82 81 80 76 76 81 81 80
62 62 62 62 62 62 62 63 63 63 63 63 64 64 64 67 84 90 84 83 83 87 95 94 92 88 82 83 81 79 77 81 85 87 88 84 82 85 81 77 80 76 76 79 79
62 61 61 61 62 62 62 62 62 62 62 63 64 65 65 74 79 91 83 84 84 93 93 91 89 83 79 78 82 79 83 83 87 89 87 83 86 81 83 82 87 83 81 80 79
61 61 61 61 61 61 61 61 61 61 62 63 64 65 75 85 88 89 84 85 92 94 92 87 85 83 80 81 80 79 83 87 88 89 89 88 83 82 81 83 85 82 81 80 81
61 60 60 60 60 61 61 60 60 61 62 64 65 66 80 82 90 89 90 92 94 94 92 91 88 88 82 82 81 83 85 87 89 88 88 85 82 84 80 83 80 80 80 82 82
60 60 60 60 60 60 60 59 59 60 62 64 66 71 80 87 91 91 90 92 93 95 91 93 93 89 85 83 86 85 82 87 86 86 85 88 78 80 82 82 79 80 81 81 82
60 60 60 60 60 59 59 58 59 61 64 65 67 74 81 89 90 91 91 93 94 95 94 94 93 89 86 87 85 80 81 76 83 85 85 86 76 82 82 80 76 80 80 77 82
59 59 59 59 59 58 57 57 60 64 66 67 74 77 83 87 89 93 94 93 93 94 94 96 92 83 85 79 78 78 71 73 78 85 84 83 78 82 83 81 79 79 79 81 81
59 59 59 58 58 57 56 57 62 66 70 73 77 76 85 84 88 91 91 94 92 92 90 88 86 81 77 80 67 70 72 75 74 82 82 81 81 84 83 82 81 79 82 81 82
59 58 58 58 57 56 58 75 76 74 74 78 77 77 81 87 88 89 92 93 92 89 82 83 82 77 76 78 79 77 74 74 78 83 80 79 80 84 83 82 82 82 83 83 83
58 58 58 57 56 56 59 72 68 69 71 74 74 76 79 83 82 87 92 89 86 81 82 81 77 81 82 80 79 77 74 75 80 82 80 79 82 85 83 82 84 84 83 83 85
58 58 57 56 55 61 63 69 68 70 70 74 75 77 81 84 82 84 90 87 82 78 80 78 80 82 82 80 78 78 76 76 76 81 80 79 80 80 84 84 85 86 88 87 86
58 58 56 54 62 59 69 68 67 69 69 72 73 79 80 83 81 87 91 89 81 80 78 79 82 80 80 78 80 74 80 80 75 76 72 78 71 78 79 83 82 84 87 88 87
57 57 55 54 55 65 68 65 68 71 58 73 74 83 78 81 83 82 87 88 80 78 79 77 78 78 78 80 82 78 82 78 77 76 75 74 72 78 79 81 84 85 87 89 91
57 56 55 55 56 63 64 66 72 67 56 70 75 74 75 78 80 82 85 87 85 79 78 79 82 82 82 83 83 85 80 77 76 76 69 69 71 76 78 79 82 86 87 88 89
55 54 54 58 68 61 64 73 65 59 71 68 70 73 73 74 76 79 78 78 76 70 71 74 78 81 84 79 82 81 79 71 67 67 66 69 69 78 81 81 83 84 86 89 91
53 52 54 57 60 62 71 70 56 64 66 72 71 71 72 75 76 74 74 73 73 77 71 69 68 78 83 81 79 78 79 71 59 63 69 67 68 79 82 84 85 86 87 89 91
52 56 57 61 59 62 70 60 62 64 69 69 71 68 69 73 75 74 74 75 78 79 72 69 69 78 80 84 85 75 74 78 70 67 69 71 74 83 82 82 85 87 87 88 89
51 55 62 59 61 67 66 56 63 67 69 70 67 70 67 71 72 73 72 76 76 79 85 74 68 75 79 83 80 82 80 73 72 61 59 67 66 73 79 82 84 86 87 89 91
55 61 61 59 62 67 61 63 64 69 69 69 68 68 69 70 74 71 73 76 79 76 79 77 74 72 75 77 77 75 75 71 74 70 66 65 72 82 81 81 84 85 86 87 86
52 59 61 62 62 55 60 62 58 69 71 71 71 70 70 70 70 72 73 78 82 78 75 81 77 70 74 77 79 79 81 81 72 65 65 69 74 84 82 83 82 84 85 83 83
52 56 64 63 58 56 58 63 66 68 69 70 69 71 72 71 68 71 72 80 77 80 76 77 74 66 69 75 75 76 78 77 76 75 65 68 74 82 79 80 82 82 82 81 82
51 56 60 61 57 60 60 62 64 68 69 71 71 71 71 70 71 70 73 78 78 82 73 80 75 73 68 72 78 72 73 75 80 72 71 73 79 79 77 79 80 80 80 81 81
51 56 56 56 59 59 62 63 62 64 67 68 67 69 70 67 69 69 73 76 76 74 78 84 74 74 77 76 76 77 75 72 74 79 74 80 75 75 78 78 77 80 80 79 79
53 53 56 56 56 59 55 60 61 63 64 65 64 69 70 69 74 72 75 76 76 74 75 76 73 71 72 75 76 74 74 76 75 73 75 74 73 75 76 77 77 77 77 76 76
53 53 52 50 56 58 60 61 62 64 67 71 69 68 67 71 76 78 79 80 78 76 76 77 73 70 68 73 73 68 74 73 69 69 71 73 74 75 73 73 75 76 76 75 75
MSLP
1017.51 1017.20 1016.83 1016.39 1015.98 1015.61 1015.30 1014.92 1014.51 1014.08 1013.74 1013.38 1012.98 1012.55 1012.17 1011.86 1011.01 1010.98 1009.63 1008.57 1008.23 1008.63 1008.89 1009.28 1009.27 1009.06 1009.23 1009.25 1009.36 1009.34 1009.00 1008.84 1008.66 1008.56 1008.73 1009.22 1009.52 1010.07 1010.41 1010.92 1011.66 1012.18 1012.60 1013.41 1015.04
1017.62 1017.28 1016.97 1016.56 1016.09 1015.67 1015.27 1014.95 1014.55 1014.05 1013.69 1013.25 1012.75 1012.40 1012.12 1011.80 1010.98 1009.71 1008.48 1008.30 1008.38 1008.54 1008.62 1008.64 1008.57 1008.88 1008.98 1009.25 1009.20 1009.04 1008.71 1008.45 1008.36 1008.23 1008.27 1008.84 1009.29 1009.81 1010.32 1010.97 1011.94 1012.71 1013.35 1014.20 1015.13
1017.69 1017.43 1017.06 1016.65 1016.16 1015.70 1015.29 1014.92 1014.56 1014.06 1013.67 1013.18 1012.60 1012.31 1011.95 1011.58 1010.42 1008.79 1008.29 1008.22 1008.54 1008.51 1008.39 1008.39 1008.43 1008.84 1009.14 1009.41 1009.42 1008.73 1008.50 1008.44 1007.90 1007.70 1007.89 1008.44 1009.09 1009.71 1010.12 1010.67 1011.33 1012.25 1013.33 1014.27 1014.93
1017.82 1017.44 1017.12 1016.67 1016.24 1015.74 1015.30 1014.93 1014.59 1014.10 1013.64 1013.13 1012.46 1012.18 1011.68 1011.23 1009.99 1008.53 1008.10 1008.32 1008.58 1008.42 1008.45 1008.40 1008.49 1008.71 1009.02 1009.41 1009.38 1008.94 1008.45 1008.14 1007.51 1007.40 1007.61 1008.17 1008.83 1009.57 1010.08 1010.36 1010.81 1011.99 1012.87 1013.84 1014.46
1017.83 1017.48 1017.09 1016.68 1016.20 1015.75 1015.25 1014.91 1014.57 1014.14 1013.70 1013.17 1012.44 1012.15 1011.45 1010.45 1009.08 1008.36 1008.25 1008.38 1008.47 1008.47 1008.18 1008.32 1008.39 1008.74 1008.93 1009.27 1009.32 1008.91 1008.19 1007.78 1007.38 1007.24 1007.46 1008.18 1008.77 1009.38 1010.35 1010.83 1011.36 1012.37 1013.40 1013.82 1014.24
1017.86 1017.52 1017.13 1016.70 1016.20 1015.70 1015.13 1014.76 1014.45 1014.04 1013.60 1013.12 1012.43 1012.11 1011.40 1009.88 1008.63 1008.42 1008.23 1008.49 1008.29 1008.21 1008.14 1008.15 1008.30 1008.52 1008.70 1008.79 1008.74 1008.56 1008.06 1007.53 1007.27 1007.30 1007.65 1008.11 1008.83 1009.35 1010.56 1011.31 1012.01 1012.66 1013.23 1013.83 1014.23
1017.90 1017.54 1017.13 1016.70 1016.17 1015.58 1015.00 1014.54 1014.22 1013.83 1013.42 1012.96 1012.49 1012.11 1011.02 1009.21 1008.61 1008.59 1008.46 1008.41 1008.45 1008.11 1008.11 1008.24 1008.30 1008.35 1008.50 1008.44 1008.45 1008.32 1007.83 1007.42 1007.49 1007.59 1007.74 1008.07 1008.81 1009.09 1010.20 1011.29 1011.98 1012.39 1013.24 1013.92 1014.24
1017.91 1017.47 1017.04 1016.57 1016.03 1015.45 1014.85 1014.32 1013.87 1013.40 1013.08 1012.76 1012.55 1011.98 1009.91 1008.70 1008.72 1008.64 1008.58 1008.31 1008.44 1008.38 1008.31 1008.53 1008.45 1008.38 1008.45 1008.63 1008.54 1008.42 1008.29 1007.96 1007.90 1007.81 1008.02 1008.06 1008.13 1009.05 1010.32 1011.22 1011.80 1012.11 1013.01 1013.56 1013.67
1017.88 1017.30 1016.81 1016.35 1015.78 1015.14 1014.54 1014.00 1013.45 1013.03 1012.86 1012.69 1012.47 1011.65 1009.20 1008.68 1008.59 1008.26 1008.38 1008.16 1008.19 1008.28 1008.45 1008.42 1008.46 1008.76 1008.76 1008.67 1008.69 1009.02 1008.73 1008.54 1008.15 1008.10 1008.03 1008.20 1008.06 1008.75 1009.79 1010.61 1011.19 1011.69 1012.46 1012.80 1013.29
1017.86 1017.32 1016.66 1016.10 1015.54 1014.85 1014.04 1013.41 1013.01 1012.84 1012.74 1012.59 1012.11 1011.59 1009.17 1008.67 1008.43 1008.29 1008.47 1008.23 1008.08 1008.24 1008.38 1008.51 1008.73 1008.81 1009.16 1008.83 1009.00 1009.20 1008.98 1008.70 1008.37 1008.14 1008.10 1007.95 1007.79 1008.37 1009.16 1009.85 1010.43 1011.25 1011.82 1012.15 1012.42
1017.68 1017.22 1016.66 1015.87 1015.30 1014.69 1013.61 1012.80 1013.37 1013.17 1012.38 1011.32 1010.94 1010.40 1009.44 1008.82 1008.65 1008.12 1008.23 1008.17 1008.12 1008.20 1008.18 1008.78 1008.57 1008.65 1009.18 1009.21 1009.18 1009.15 1009.09 1008.82 1008.41 1008.13 1008.01 1007.83 1007.63 1007.63 1008.39 1009.26 1009.79 1010.34 1010.74 1010.93 1011.36
1017.54 1017.03 1016.48 1015.86 1015.03 1014.51 1014.26 1013.43 1013.97 1014.07 1012.36 1010.97 1010.80 1010.30 1009.77 1009.40 1008.60 1008.04 1008.01 1007.87 1008.04 1008.08 1008.59 1008.85 1008.57 1008.95 1009.16 1009.22 1009.01 1009.00 1008.82 1008.55 1008.26 1008.19 1008.16 1007.67 1007.13 1007.22 1007.82 1008.40 1008.73 1009.11 1009.50 1010.12 1010.81
1017.53 1016.91 1016.33 1015.60 1014.82 1014.41 1014.38 1013.91 1014.07 1013.76 1012.58 1010.77 1010.19 1009.68 1009.29 1009.11 1008.50 1007.97 1007.91 1007.76 1007.98 1008.27 1008.44 1008.45 1008.78 1008.94 1008.79 1008.79 1008.68 1008.64 1008.71 1008.60 1008.43 1008.25 1008.26 1007.89 1007.13 1007.22 1007.51 1007.78 1007.86 1008.32 1008.70 1009.29 1009.74
1017.65 1017.04 1016.51 1015.61 1015.05 1015.23 1014.27 1014.00 1013.88 1013.65 1012.16 1010.38 1009.68 1008.94 1009.02 1008.71 1008.30 1007.93 1007.72 1007.63 1008.22 1008.11 1008.60 1008.63 1008.83 1008.77 1008.57 1008.39 1008.52 1008.33 1008.64 1008.52 1008.54 1008.29 1008.27 1008.44 1007.41 1007.23 1007.48 1007.27 1007.44 1007.68 1008.02 1008.41 1008.92
1017.37 1017.06 1016.69 1016.35 1016.00 1015.09 1014.40 1014.05 1013.62 1013.25 1011.07 1009.47 1008.94 1008.77 1008.67 1008.37 1007.83 1007.92 1008.03 1007.75 1007.85 1008.25 1008.73 1008.47 1008.53 1008.43 1008.20 1008.08 1008.34 1008.26 1008.44 1008.35 1008.25 1008.28 1008.59 1008.69 1008.22 1007.31 1007.53 1007.13 1007.10 1007.27 1007.47 1007.64 1007.70
1017.24 1016.97 1016.77 1016.42 1016.09 1014.54 1014.24 1013.75 1013.23 1012.27 1009.87 1008.64 1008.29 1008.31 1008.20 1008.08 1007.70 1007.85 1007.83 1007.79 1008.28 1008.47 1008.64 1008.51 1008.61 1008.25 1008.04 1008.15 1008.17 1008.12 1008.36 1008.43 1008.63 1008.64 1008.69 1009.15 1008.85 1007.49 1007.39 1007.46 1007.22 1007.02 1006.90 1007.01 1006.94
1016.91 1016.69 1016.77 1016.21 1015.00 1014.52 1014.22 1013.22 1012.36 1010.66 1009.04 1008.32 1007.81 1007.84 1007.71 1007.49 1007.57 1007.41 1007.50 1007.69 1007.73 1008.15 1008.27 1008.64 1008.33 1008.33 1008.11 1007.98 1008.13 1008.13 1007.97 1007.87 1008.26 1008.52 1008.80 1009.48 1009.06 1007.45 1007.43 1007.52 1007.34 1007.23 1007.04 1006.89 1006.67
1016.39 1016.03 1015.58 1015.16 1014.82 1014.44 1013.63 1012.69 1011.17 1009.36 1008.46 1007.93 1007.57 1007.64 1007.27 1007.22 1007.31 1007.41 1007.40 1007.57 1008.06 1007.84 1008.24 1008.15 1008.16 1007.98 1007.87 1007.75 1007.63 1007.87 1007.91 1007.81 1008.09 1008.59 1008.88 1009.60 1008.38 1007.33 1007.43 1007.48 1007.54 1007.57 1007.40 1007.21 1006.73
1015.93 1015.53 1015.24 1014.56 1014.64 1014.73 1013.27 1011.81 1009.93 1009.12 1008.41 1007.86 1007.53 1007.17 1007.12 1007.03 1006.84 1006.99 1007.10 1007.01 1007.22 1007.50 1007.60 1008.03 1008.00 1007.81 1007.70 1007.58 1007.61 1008.06 1008.12 1008.41 1008.46 1009.43 1008.99 1008.81 1008.09 1007.05 1007.33 1007.17 1007.32 1007.29 1007.40 1007.25 1006.99
1016.03 1015.33 1014.65 1014.52 1014.46 1013.91 1012.79 1010.95 1010.13 1009.37 1008.67 1008.11 1007.18 1006.80 1006.40 1006.53 1006.58 1006.59 1006.79 1006.55 1006.91 1007.21 1007.12 1007.85 1007.81 1007.80 1007.69 1007.72 1008.03 1007.38 1008.13 1008.44 1008.50 1008.50 1008.41 1008.29 1007.91 1006.97 1006.70 1006.75 1007.18 1007.41 1007.42 1007.20 1006.95
1015.86 1014.97 1014.55 1014.56 1014.41 1013.23 1011.66 1010.75 1010.01 1009.32 1008.99 1008.11 1007.40 1006.89 1006.43 1006.14 1006.06 1006.25 1006.04 1006.40 1006.38 1007.02 1007.37 1007.72 1007.66 1007.95 1007.89 1007.22 1007.11 1007.90 1007.82 1008.44 1008.49 1008.62 1007.85 1007.52 1006.86 1006.50 1006.24 1007.15 1007.37 1007.77 1007.97 1007.91 1007.48
1015.81 1014.72 1014.59 1014.64 1013.82 1013.17 1011.50 1010.67 1009.88 1009.19 1008.82 1008.18 1007.75 1007.10 1006.50 1006.30 1006.06 1006.00 1005.75 1005.51 1005.50 1006.21 1006.89 1007.35 1007.33 1007.26 1007.11 1007.61 1007.64 1007.24 1006.82 1007.16 1007.25 1008.26 1008.45 1007.61 1006.46 1006.42 1007.08 1007.46 1008.02 1008.31 1008.50 1008.61 1008.29
1016.03 1015.07 1014.53 1014.24 1012.99 1012.34 1011.62 1010.54 1009.85 1009.31 1008.77 1008.30 1007.73 1007.35 1006.95 1006.38 1006.25 1005.98 1005.81 1005.39 1005.63 1005.77 1006.08 1006.90 1006.85 1006.84 1006.86 1007.50 1007.89 1007.29 1007.26 1007.34 1007.36 1007.56 1007.59 1007.00 1006.46 1007.10 1007.89 1008.23 1008.49 1008.75 1009.11 1009.21 1008.99
1016.40 1014.98 1014.28 1013.76 1013.11 1011.83 1010.95 1010.34 1009.76 1009.36 1008.94 1008.55 1007.97 1007.68 1007.17 1006.64 1006.41 1006.01 1005.67 1005.34 1005.49 1005.46 1005.49 1005.76 1006.33 1005.96 1005.77 1005.99 1006.39 1006.80 1007.01 1007.17 1006.85 1006.92 1006.96 1006.76 1006.54 1007.44 1008.27 1008.69 1009.20 1009.43 1009.70 1009.79 1009.80
1016.27 1014.81 1014.17 1013.20 1012.46 1011.65 1010.79 1010.17 1009.60 1009.27 1009.19 1008.84 1008.28 1007.80 1007.36 1006.82 1006.28 1005.88 1005.60 1005.42 1005.76 1005.73 1005.79 1005.44 1005.29 1005.86 1005.82 1006.21 1006.35 1006.33 1006.58 1007.00 1007.00 1006.67 1006.60 1006.53 1007.45 1008.35 1008.90 1009.33 1009.90 1010.11 1010.36 1010.40 1010.50
1016.24 1015.34 1014.44 1013.36 1012.43 1011.71 1010.97 1010.25 1009.70 1009.50 1009.24 1008.72 1008.42 1007.77 1007.52 1006.78 1005.93 1005.45 1005.42 1005.32 1005.28 1006.00 1005.83 1005.81 1005.25 1005.73 1005.92 1006.36 1006.49 1006.59 1006.91 1007.14 1007.54 1007.71 1007.66 1007.92 1008.66 1009.61 1010.20 1010.48 1010.69 1010.84 1010.94 1011.05 1011.45
1016.81 1016.24 1015.25 1013.53 1012.34 1011.55 1010.71 1010.30 1009.90 1009.67 1009.03 1008.59 1008.34 1008.11 1007.60 1006.87 1006.50 1005.96 1005.91 1005.70 1005.80 1005.69 1005.51 1005.48 1005.53 1005.67 1005.79 1006.41 1006.83 1007.20 1007.15 1007.59 1008.32 1008.80 1008.69 1008.49 1009.25 1010.55 1011.01 1011.61 1011.74 1012.00 1012.08 1012.12 1012.45
Wind_Speed
15 16 16 16 16 16 16 16 16 16 16 16 15 14 13 14 13 3 3 1 3 13 9 8 3 2 3 2 3 0 2 3 1 1 5 8 5 3 4 12 5 3 6 13 20
16 16 16 16 16 17 17 16 17 17 17 17 16 15 14 13 3 3 1 6 7 11 7 5 4 5 3 4 3 3 2 2 0 1 2 9 7 6 6 10 5 10 14 21 19
16 16 16 16 17 17 17 17 17 18 17 17 17 15 14 9 2 2 6 7 7 4 2 1 5 2 3 3 3 3 1 1 2 5 5 9 6 4 9 7 7 12 20 21 19
16 16 16 17 17 17 17 18 17 18 18 18 18 16 17 2 4 3 7 8 8 2 3 4 3 2 2 3 2 2 3 3 4 3 6 8 9 5 8 2 5 17 22 21 20
16 16 17 17 18 18 18 18 18 18 18 17 17 15 5 1 1 3 3 9 6 4 2 3 3 3 1 2 3 2 3 3 4 3 7 10 5 2 6 6 14 18 18 19 18
16 16 17 17 18 18 19 19 19 18 17 15 15 15 3 3 1 1 2 5 3 2 2 1 2 3 4 2 1 4 6 1 4 6 8 6 4 3 5 13 15 18 19 16 17
16 17 17 17 18 19 19 20 19 17 15 13 11 4 1 2 3 1 1 1 2 0 2 1 2 1 1 2 4 5 2 4 7 3 3 7 3 4 11 15 15 16 16 15 15
17 17 17 18 19 19 20 20 19 17 11 7 5 2 5 1 1 2 2 0 1 2 1 2 0 4 2 2 2 5 3 2 3 1 2 3 3 1 14 15 14 16 15 15 18
18 19 19 19 20 20 20 21 18 6 2 2 1 3 4 0 3 1 4 1 3 1 1 5 1 3 2 2 3 6 2 2 2 2 2 5 4 3 14 14 14 15 15 15 15
17 18 19 20 20 20 22 16 5 5 2 2 1 3 2 2 1 0 3 2 3 5 5 1 3 2 3 2 3 2 2 3 3 1 3 6 12 5 14 15 14 13 13 14 15
18 17 18 20 21 21 10 2 2 2 1 4 1 2 2 8 3 2 3 7 3 2 4 2 3 3 4 2 2 1 2 6 4 3 3 3 9 6 10 14 14 14 15 16 17
18 18 19 21 23 12 4 4 4 3 4 4 6 6 4 2 3 1 4 7 5 6 4 3 1 4 5 4 0 2 3 3 3 2 4 4 9 6 5 9 16 16 16 15 14
18 18 20 22 21 2 3 9 4 2 2 2 4 4 3 7 3 6 8 5 3 6 7 7 6 5 4 2 3 2 3 5 5 4 2 8 4 3 2 4 7 13 13 13 16
16 17 18 26 2 4 1 2 8 4 2 3 5 3 6 4 4 3 6 5 3 11 6 4 5 6 3 1 2 1 2 6 9 3 2 5 3 2 6 8 3 4 9 11 15
17 15 17 9 5 3 3 7 0 4 3 5 4 2 3 7 7 4 1 2 10 7 6 5 5 6 5 3 2 1 4 6 4 5 2 3 3 2 3 3 6 3 2 5 10
16 14 17 2 2 5 6 6 3 2 6 4 4 6 8 2 3 4 5 4 4 5 1 2 1 1 3 2 2 4 2 2 3 2 3 2 4 1 1 2 4 5 9 8 7
16 15 9 3 1 3 6 3 3 5 2 5 4 6 5 7 5 5 11 11 9 10 10 2 5 1 2 4 2 3 2 2 4 4 2 1 4 2 3 4 5 9 9 11 9
19 17 3 5 1 5 2 3 5 1 4 2 3 6 8 8 6 4 12 12 2 6 6 11 10 10 7 11 3 2 2 3 5 4 1 1 3 2 5 4 6 5 7 7 10
18 1 2 2 7 4 3 6 5 5 1 1 4 5 6 5 5 5 9 15 13 11 8 10 9 1 5 5 8 6 5 2 5 1 4 0 4 10 8 9 7 4 4 6 8
4 3 1 4 6 3 3 5 3 3 2 3 6 3 10 12 9 9 10 7 9 11 8 7 5 2 2 5 5 4 7 4 1 5 5 3 4 5 5 8 8 1 7 11 12
1 2 5 1 3 2 9 6 4 5 3 2 2 2 4 7 10 9 10 4 11 14 6 9 2 4 4 8 11 5 5 4 2 3 3 3 2 5 11 4 7 5 7 11 14
2 3 4 2 4 1 7 6 3 2 3 2 2 2 2 4 8 8 13 6 13 17 13 9 4 6 6 4 3 1 7 10 7 7 1 3 3 1 3 6 5 6 8 10 10
2 1 2 3 5 4 1 5 3 4 2 1 1 2 1 2 4 6 5 2 11 16 18 11 7 4 5 5 4 7 6 3 4 3 7 5 4 8 6 6 6 9 11 11 13
2 3 2 0 1 2 7 6 11 2 3 3 3 1 1 1 0 2 4 3 13 12 4 17 7 11 7 3 5 6 8 9 10 6 7 7 10 6 7 9 9 11 12 13 14
1 1 3 6 5 3 3 6 8 9 3 3 3 8 5 4 2 4 5 3 4 6 8 14 15 12 10 5 5 3 9 12 13 9 10 9 8 6 6 10 10 12 13 15 15
2 2 1 1 2 7 1 5 7 5 4 5 5 3 11 11 9 6 2 0 2 4 8 6 8 10 12 9 8 6 4 10 9 4 6 3 4 4 10 12 12 13 14 16 14
1 1 3 2 4 6 5 5 5 4 7 10 7 6 6 15 11 10 8 7 5 2 8 8 7 8 7 7 9 6 6 7 4 2 2 5 6 12 13 13 14 13 14 16 14
Wind_Direction
9 7 4 359 355 353 351 349 346 343 341 338 334 329 328 331 310 200 248 96 176 154 126 142 189 199 169 30 29 358 76 59 69 156 117 146 131 91 101 140 87 5 145 134 150
6 4 1 357 352 349 347 346 343 338 337 334 329 327 330 334 312 266 277 151 127 153 133 172 173 154 45 25 11 360 73 56 22 286 181 157 149 144 138 148 86 80 110 134 150
3 2 358 354 350 346 343 342 340 335 334 331 326 327 326 321 274 66 334 171 141 187 114 166 117 78 67 344 4 341 81 344 295 259 165 154 126 141 148 197 183 161 147 151 161
1 357 355 350 347 342 339 338 337 332 330 329 324 326 322 258 130 337 318 146 138 154 125 132 93 77 98 60 321 6 261 239 301 137 160 163 144 141 167 341 179 161 157 157 167
358 355 351 348 343 339 335 333 332 328 327 327 323 327 316 239 280 326 88 112 119 163 136 117 124 139 112 166 194 229 293 283 252 333 163 136 150 112 185 86 126 144 159 168 174
353 351 348 344 339 336 331 328 326 323 322 320 318 318 303 222 40 242 154 111 121 156 142 117 101 175 117 75 64 324 307 88 88 98 126 144 139 184 131 132 133 154 170 176 181
350 347 344 341 337 332 326 322 320 316 312 306 309 322 289 252 84 78 228 54 146 94 119 72 120 359 149 90 2 329 77 49 47 78 122 134 159 234 147 149 151 172 179 179 188
347 343 341 338 334 327 320 317 314 309 302 290 300 284 252 112 291 281 182 207 185 221 327 84 347 89 23 324 30 23 36 2 32 90 123 247 288 166 157 158 169 181 183 189 200
346 342 338 335 329 322 317 313 309 309 320 279 269 326 261 141 219 206 193 161 150 122 51 85 23 54 29 40 76 40 36 348 317 16 174 219 292 157 175 180 182 193 184 194 203
342 338 333 331 327 324 316 303 283 300 156 208 256 255 246 130 334 356 154 175 120 118 114 114 57 84 37 18 93 27 7 326 273 287 235 222 258 236 194 196 199 197 193 195 203
340 335 333 330 328 328 332 133 199 174 174 231 116 308 325 316 267 185 154 146 124 132 179 71 181 136 143 178 157 313 289 299 266 258 261 258 274 266 207 210 210 204 202 205 204
337 333 334 331 329 328 296 78 74 5 303 231 247 284 271 305 316 171 173 169 170 178 143 162 250 177 174 186 322 26 333 327 302 236 260 306 304 334 165 218 223 214 212 211 203
334 333 335 333 326 330 354 126 21 218 269 285 192 201 231 178 204 208 185 135 147 155 186 214 135 151 188 145 0 10 8 5 346 347 105 312 265 13 56 323 235 226 228 218 212
333 333 339 330 289 336 117 119 326 214 357 192 198 203 160 175 216 206 188 150 134 206 164 230 147 227 221 2 109 313 165 325 295 287 354 339 335 0 354 12 49 239 227 228 217
329 333 338 345 317 254 49 323 227 220 232 126 146 107 128 201 128 178 203 131 164 163 193 171 178 181 201 173 133 308 347 346 345 162 227 43 275 29 351 8 6 357 305 265 241
322 325 333 192 246 267 317 317 216 207 241 154 127 158 159 195 128 113 159 74 104 135 116 154 305 181 118 154 239 302 157 88 78 159 227 7 312 266 314 328 297 325 343 358 332
314 317 307 286 329 317 307 204 164 223 40 164 166 171 170 162 136 157 170 167 171 184 201 186 221 181 232 298 140 194 246 227 198 207 301 50 249 303 227 230 273 323 332 344 349
319 315 237 221 296 333 224 179 206 236 224 40 125 135 188 158 187 134 157 180 150 161 168 203 220 211 173 221 190 139 226 236 223 218 82 126 237 54 197 208 279 274 308 342 356
322 277 241 274 224 286 204 204 220 203 130 194 134 150 179 185 186 163 192 199 184 183 195 188 229 209 206 185 204 153 203 72 119 101 248 359 264 261 233 252 222 275 325 360 357
320 315 262 358 164 175 195 221 236 230 313 205 207 207 177 179 182 186 179 176 185 190 195 183 199 200 115 154 63 252 132 168 191 191 228 184 274 262 244 200 192 93 8 356 350
288 220 26 3 213 188 208 214 226 240 244 240 176 175 196 175 195 176 195 177 211 178 181 151 250 126 188 207 174 151 162 75 116 300 235 236 247 219 246 90 174 62 12 349 337
323 193 37 212 160 286 205 197 183 223 202 264 257 259 194 154 175 196 201 235 179 157 183 196 206 221 205 73 18 339 212 198 228 180 54 313 269 78 73 100 56 34 19 15 11
7 36 93 293 189 195 193 217 244 191 211 188 268 254 13 131 194 215 194 206 159 174 171 170 208 185 206 183 134 220 193 144 119 130 187 209 245 68 93 82 71 67 52 43 43
247 150 133 159 358 207 171 187 211 196 237 242 286 165 251 287 200 138 231 188 186 196 146 167 170 218 217 199 167 181 188 195 213 203 180 227 261 88 105 108 88 78 70 65 60
282 122 351 178 209 200 200 178 186 212 209 211 217 232 208 241 224 215 222 159 130 184 161 190 211 210 225 198 172 195 178 183 203 217 217 236 221 39 132 111 100 93 81 70 57
314 303 145 166 171 192 247 190 191 181 210 197 219 96 211 228 226 199 176 154 122 171 171 203 193 192 230 217 212 216 192 208 219 230 249 124 146 94 112 112 94 85 81 72 61
20 245 282 105 164 187 194 186 199 180 218 234 215 237 226 245 249 283 288 281 278 258 177 187 171 167 212 184 176 227 210 181 146 136 285 211 114 136 111 87 82 79 76 73 61